Weather History for KJOT - May, 2014

Change the Weather History Date:

Saturday, May 10, 2014

  Actual Average (KLOT) Record (KLOT)
Temperature  
Mean Temperature 60 °F 59 °F  
Max Temperature 75 °F 69 °F 91 °F (2011)
Min Temperature 44 °F 48 °F 35 °F (1997)
Degree Days  
Heating Degree Days 6 7  
Month to date heating degree days 85  
Since 1 July heating degree days 6079  
Cooling Degree Days 0 1  
Month to date cooling degree days 8  
Year to date cooling degree days 13  
Growing Degree Days 10 (Base 50)    
Moisture  
Dew Point 42 °F    
Average Humidity 55    
Maximum Humidity 96    
Minimum Humidity 23    
Precipitation  
Precipitation 0.00 in 0.13 in 0.54 in (2003)
Month to date precipitation 1.40  
Year to date precipitation 11.84  
Sea Level Pressure  
Sea Level Pressure 29.94 in    
Wind  
Wind Speed 2 mph (SW)    
Max Wind Speed 9 mph    
Max Gust Speed 16 mph    
Visibility 10 miles    
Events      
T = Trace of Precipitation, MM = Missing Value Source: NWS Daily Summary

Daily Weather History Graph

Daily Weather History Graph

Search for Another Location

Airport or City:

Trip Planner

Search our weather history database for the weather conditions in past years. The results will help you decide how hot, cold, wet, or windy it might be!

Date:

Astronomy

May. 10, 2014 Rise Set
Actual Time 5:38 AM CDT 8:00 PM CDT
Civil Twilight 5:07 AM CDT 8:31 PM CDT
Nautical Twilight 4:29 AM CDT 9:09 PM CDT
Astronomical Twilight 3:46 AM CDT 9:52 PM CDT
Moon 3:52 PM CDT (5/10) 3:15 AM CDT (5/10)
Length of Visible Light 15h 23m
Length of Day
14h 21m
Waxing Gibbous, 82% of the Moon is Illuminated
May 10
Waxing Gibbous
May 14
Full
May 21
Last Quarter
May 28
New
Jun 5
First Quarter

Hourly Weather History & Observations

Time (CDT) Temp. Dew Point Humidity Pressure Visibility Wind Dir Wind Speed Gust Speed Precip Events Conditions
12:15 AM 55.6 °F 42.4 °F 61% 29.91 in 10.0 mi WNW 3.5 mph - N/A   Clear
12:35 AM 55.0 °F 42.4 °F 63% 29.91 in 10.0 mi Calm Calm - N/A   Clear
12:55 AM 54.0 °F 43.0 °F 66% 29.91 in 10.0 mi Calm Calm - N/A   Clear
1:15 AM 53.1 °F 43.5 °F 70% 29.91 in 10.0 mi Calm Calm - N/A   Clear
1:35 AM 48.0 °F 44.4 °F 87% 29.91 in 10.0 mi Calm Calm - N/A   Clear
1:55 AM 48.7 °F 44.6 °F 86% 29.91 in 10.0 mi Calm Calm - N/A   Clear
2:15 AM 47.8 °F 44.4 °F 88% 29.91 in 10.0 mi Calm Calm - N/A   Clear
2:35 AM 45.0 °F 42.1 °F 90% 29.91 in 10.0 mi Calm Calm - N/A   Clear
2:55 AM 45.3 °F 43.9 °F 95% 29.91 in 7.0 mi Calm Calm - N/A   Clear
3:15 AM 45.9 °F 44.6 °F 95% 29.91 in 10.0 mi Calm Calm - N/A   Clear
3:35 AM 45.5 °F 43.3 °F 92% 29.91 in 10.0 mi Calm Calm - N/A   Clear
3:55 AM 44.2 °F 43.0 °F 95% 29.92 in 10.0 mi Calm Calm - N/A   Clear
4:15 AM 45.9 °F 44.8 °F 96% 29.92 in 10.0 mi Calm Calm - N/A   Clear
4:35 AM 45.3 °F 44.1 °F 95% 29.92 in 5.0 mi Calm Calm - N/A   Clear
4:55 AM 44.8 °F 43.7 °F 96% 29.93 in 10.0 mi Calm Calm - N/A   Clear
5:15 AM 45.3 °F 44.2 °F 96% 29.93 in 10.0 mi Calm Calm - N/A   Clear
5:35 AM 46.4 °F 45.0 °F 95% 29.92 in 10.0 mi Calm Calm - N/A   Clear
5:55 AM 45.3 °F 43.3 °F 93% 29.93 in 10.0 mi Calm Calm - N/A   Clear
6:15 AM 45.3 °F 43.9 °F 95% 29.93 in 10.0 mi Calm Calm - N/A   Clear
6:35 AM 46.6 °F 45.3 °F 95% 29.93 in 10.0 mi Calm Calm - N/A   Clear
6:55 AM 48.7 °F 46.8 °F 93% 29.94 in 10.0 mi Calm Calm - N/A   Clear
7:15 AM 51.3 °F 48.7 °F 91% 29.94 in 10.0 mi Calm Calm - N/A   Clear
7:35 AM 53.2 °F 48.9 °F 85% 29.94 in 10.0 mi Calm Calm - N/A   Clear
7:55 AM 54.7 °F 50.0 °F 84% 29.95 in 10.0 mi South 3.5 mph - N/A   Clear
8:15 AM 55.9 °F 49.5 °F 79% 29.95 in 10.0 mi SSW 3.5 mph - N/A   Clear
8:35 AM 57.4 °F 48.9 °F 73% 29.96 in 10.0 mi South 4.6 mph - N/A   Clear
8:55 AM 58.8 °F 49.6 °F 72% 29.97 in 10.0 mi South 4.6 mph - N/A   Clear
9:15 AM 61.3 °F 50.0 °F 66% 29.97 in 10.0 mi South 3.5 mph - N/A   Clear
9:35 AM 64.2 °F 47.7 °F 55% 29.97 in 10.0 mi WSW 5.8 mph - N/A   Clear
9:55 AM 65.8 °F 47.1 °F 51% 29.97 in 10.0 mi SW 5.8 mph - N/A   Clear
10:15 AM 66.7 °F 43.3 °F 43% 29.97 in 10.0 mi SW 8.1 mph - N/A   Clear
10:35 AM 66.6 °F 42.1 °F 41% 29.97 in 10.0 mi WSW 4.6 mph - N/A   Clear
10:55 AM 68.4 °F 38.7 °F 34% 29.97 in 10.0 mi West 4.6 mph - N/A   Clear
11:15 AM 69.1 °F 33.8 °F 27% 29.97 in 10.0 mi WSW 3.5 mph - N/A   Clear
11:35 AM 69.6 °F 33.1 °F 26% 29.97 in 10.0 mi West 6.9 mph - N/A   Clear
11:55 AM 70.2 °F 34.2 °F 27% 29.97 in 10.0 mi SW 5.8 mph - N/A   Clear
12:15 PM 70.3 °F 32.5 °F 25% 29.97 in 10.0 mi WSW 3.5 mph - N/A   Clear
12:35 PM 71.1 °F 32.5 °F 24% 29.96 in 10.0 mi West 5.8 mph - N/A   Clear
12:55 PM 71.8 °F 32.4 °F 23% 29.96 in 10.0 mi WSW 9.2 mph 16.1 mph N/A   Clear
1:15 PM 72.5 °F 34.2 °F 25% 29.95 in 10.0 mi WSW 8.1 mph - N/A   Clear
1:35 PM 72.0 °F 35.4 °F 26% 29.95 in 10.0 mi WNW 4.6 mph - N/A   Clear
1:55 PM 72.7 °F 35.4 °F 26% 29.94 in 10.0 mi WSW 8.1 mph - N/A   Clear
2:15 PM 72.7 °F 36.1 °F 26% 29.93 in 10.0 mi North 3.5 mph - N/A   Clear
2:35 PM 73.0 °F 36.0 °F 26% 29.93 in 10.0 mi WNW 4.6 mph - N/A   Clear
2:55 PM 73.8 °F 38.8 °F 28% 29.93 in 10.0 mi Calm Calm - N/A   Clear
3:15 PM 74.1 °F 38.3 °F 27% 29.93 in 10.0 mi West 5.8 mph - N/A   Clear
3:35 PM 73.8 °F 38.1 °F 27% 29.92 in 10.0 mi West 9.2 mph - N/A   Clear
3:55 PM 74.5 °F 38.8 °F 28% 29.92 in 10.0 mi WNW 5.8 mph - N/A   Clear
4:15 PM 74.5 °F 39.2 °F 28% 29.92 in 10.0 mi WSW 5.8 mph - N/A   Scattered Clouds
4:35 PM 74.1 °F 38.1 °F 27% 29.92 in 10.0 mi West 4.6 mph - N/A   Scattered Clouds
4:55 PM 75.2 °F 39.4 °F 27% 29.91 in 10.0 mi West 6.9 mph - N/A   Clear
5:15 PM 75.2 °F 40.3 °F 28% 29.91 in 10.0 mi Calm Calm - N/A   Clear
5:35 PM 74.7 °F 40.3 °F 29% 29.91 in 10.0 mi West 5.8 mph - N/A   Clear
5:55 PM 74.7 °F 38.8 °F 27% 29.91 in 10.0 mi WSW 4.6 mph - N/A   Clear
6:15 PM 74.7 °F 40.3 °F 29% 29.90 in 10.0 mi Calm Calm - N/A   Clear
6:35 PM 73.0 °F 41.9 °F 33% 29.89 in 10.0 mi Calm Calm - N/A   Clear
6:55 PM 73.6 °F 39.2 °F 29% 29.89 in 10.0 mi Calm Calm - N/A   Clear
7:15 PM 72.7 °F 39.6 °F 30% 29.89 in 10.0 mi Calm Calm - N/A   Clear
7:35 PM 68.5 °F 46.4 °F 45% 29.89 in 10.0 mi ESE 4.6 mph - N/A   Clear
7:55 PM 68.4 °F 45.0 °F 43% 29.91 in 10.0 mi South 3.5 mph - N/A   Clear
8:15 PM 68.0 °F 43.2 °F 41% 29.92 in 10.0 mi SE 3.5 mph - N/A   Clear
8:35 PM 67.1 °F 44.6 °F 44% 29.94 in 10.0 mi South 4.6 mph - N/A   Clear
8:55 PM 67.1 °F 42.8 °F 41% 29.95 in 10.0 mi Calm Calm - N/A   Clear
9:15 PM 65.5 °F 42.4 °F 43% 29.94 in 10.0 mi SSE 3.5 mph - N/A   Clear
9:35 PM 64.6 °F 43.0 °F 45% 29.96 in 10.0 mi South 3.5 mph - N/A   Clear
9:55 PM 64.2 °F 43.2 °F 46% 29.97 in 10.0 mi South 3.5 mph - N/A   Clear
10:15 PM 63.9 °F 43.0 °F 47% 29.98 in 10.0 mi SSE 3.5 mph - N/A   Clear
10:35 PM 63.7 °F 43.3 °F 48% 29.98 in 10.0 mi Calm Calm - N/A   Clear
10:55 PM 63.3 °F 42.3 °F 46% 29.96 in 10.0 mi SE 5.8 mph - N/A   Clear
11:15 PM 62.8 °F 41.7 °F 46% 29.96 in 10.0 mi SSE 5.8 mph - N/A   Clear
11:35 PM 63.5 °F 41.2 °F 44% 29.96 in 10.0 mi SE 4.6 mph - N/A   Clear
11:55 PM 60.1 °F 43.0 °F 53% 29.95 in 10.0 mi SE 6.9 mph - N/A   Clear